Flag for U.S.A. Weather past 2 weeks in Tucson, Arizona, U.S.A.

Now
67 °F

Clear.


Feels Like: 67 °F
Forecast: 55 / 82 °F
Wind: 5 mph from West

Location: Davis-Monthan Air Force Base

Current Time: May 23, 2015 at 10:34:42 PM

Latest Report: May 23, 2015 at 9:58 PM


Visibility: 10 mi

Pressure: 29.87 "Hg

Humidity: N/A

Dew point: N/A

Location of TucsonLocation

Historic Weather in Tucson — Graph

°F

Tucson temperature yesterday

Maximum temperature yesterday: 81 °F (at 12:59 PM)
Minimum temperature yesterday: 53 °F (at 5:58 AM)
Average temperature yesterday: 69 °F

Past Weeks' High & Low Weather Summary

 TemperatureHumidityPressure
High90 °F (May 20, 3:58 PM)89% (May 16, 5:58 AM)30.01 "Hg (May 16, 5:58 AM)
Low49 °F (May 9, 5:58 AM)6% (May 20, 2:58 PM)29.67 "Hg (May 14, 4:58 PM)
Average69 °F28%29.84 "Hg
* Reported May 8 8:58 PM — May 23 8:58 PM, Tucson, Weather by CustomWeather, © 2015

Note: Actual official high and low records may vary slightly from our data, if they occured in-between our weather recording intervals... More about our weather records

Advertising

Tucson weather history for previous 24 hours

 ConditionsComfort  
Time TempWeatherWind HumidityBarometerVisibility
8:58 PM
Sat, May 23
69 °FClear.6 mph25%29.86 "Hg10 mi
7:58 PM72 °FClear.10 mph22%29.85 "Hg10 mi
6:58 PM74 °FSunny.14 mph20%29.83 "Hg10 mi
5:58 PM76 °FSunny.17 mph19%29.83 "Hg10 mi
4:58 PM77 °FSunny.15 mph18%29.83 "Hg10 mi
3:58 PM76 °FSunny.5 mph16%29.85 "Hg10 mi
2:58 PM76 °FSunny.10 mph15%29.88 "Hg10 mi
1:58 PM75 °FSunny.No wind17%29.90 "Hg10 mi
12:58 PM72 °FSunny.8 mph16%29.92 "Hg10 mi
11:58 AM70 °FSunny.7 mph21%29.93 "Hg10 mi
10:58 AM68 °FSunny.2 mph26%29.95 "Hg10 mi
9:58 AM66 °FSunny.7 mph31%29.95 "Hg10 mi
8:58 AM64 °FSunny.3 mph34%29.96 "Hg10 mi
7:58 AM60 °FSunny.5 mph39%29.95 "Hg10 mi
6:58 AM58 °FSunny.7 mph42%29.94 "Hg10 mi
5:58 AM52 °FSunny.7 mph50%29.94 "Hg10 mi
4:58 AM53 °FClear.2 mph47%29.91 "Hg10 mi
3:58 AM53 °FClear.3 mph44%29.90 "Hg10 mi
2:58 AM57 °FClear.5 mph40%29.88 "Hg10 mi
1:58 AM60 °FClear.2 mph36%29.88 "Hg10 mi
12:58 AM60 °FClear.6 mph35%29.88 "Hg10 mi
11:58 PM
Fri, May 22
62 °FClear.8 mph32%29.88 "Hg10 mi
10:58 PM65 °FClear.8 mphN/A29.89 "Hg10 mi
Weather by CustomWeather, © 2015

See weather overviewHow to use our weather pages